METEOR 2-17 DEB, 35371

Orbit data source: Space-Track

METEOR 2-17 DEB, 35371 is space debris in LEO originally from a launch on Sat, 30 Jan 1988 UTC launched from the Plesetsk Missile And Space Complex (PKMTR). Debris objects in space refer to the collection of defunct objects orbiting the Earth. Examples of debris include non-operational satellites, rocket bodies, and fragments generated from explosions, collisions, or faulty payload assembly.

Loading next visibility...
Identifier
35371, 1988-005AF
Orbit
LEO
Last TLE update
1 day ago
Origin
Manufacturer
Unknown
Mission
Spacecraft
Bus & Motor
Unknown
Mass
Unknown
Launch date (UTC)
1988-01-30 (37 years ago)
Launch vehicle
Unknown
Launch site
Plesetsk Missile And Space Complex (PKMTR)
Object type
Payload
Rocket body
Debris
Shape & HBR
Unknown
Radar Cross Section
Small (<0.1 m²)

Expand to show TLE details & history

TLE from 1 day ago
0 METEOR 2-17 DEB
1 35371U 88005AF  25127.92910368  .00001803  00000-0  11365-2 0  9995
2 35371  82.5118 204.7671 0011678 286.4476  73.5411 14.03736668919300
Epoch: 2025-05-07T22:17Z
Definitive object data (Epoch: 2025-05-07T22:17:54.557Z)
Latitude
-0.00008°
Longitude
4.28286°
Altitude
881.42 km
Speed
7.413 km/s
True Right ascension
13h 39m 04s
True Declination
0° 00' 00"
Sunlit
Object was in full shadow at TLE epoch
Visualization TLE readout
Latitude
-70.73886°
Longitude
-154.95949°
Altitude
899.866 km
Speed
7.405 km/s
Apparent Right ascension
04h 57m 15s
Apparent Declination
-57° 49' 34"
Sunlit
Object is in daylight
Visualization observer readout
Local Sidereal Time
17:52:00
Azimuth
158.336° S
Elevation
-70.042°
Doppler factor
1
Orbital elements
Apogee altitude
886.484 km
Perigee altitude
869.537 km
Semi-major axis
7,256.148 km
Eccentricity
0.0011678
Inclination
82.5118°
RAAN
204.7671°
Arg. of periapsis
286.4476°
True anomaly
73.66949°
Mean anomaly
73.5411°
Eccentric anomaly
73.60529°
Mean motion
3.51143 °/min
BSTAR
0.0011365
Orbital period
102.52 mins
Loading maneuver chart data...
Loading SW <> Apogee altitude chart data...
Loading historical data...
Loading historical data...
Loading historical data...
Loading historical data...
Loading historical data...
Loading historical data...
Loading historical data...

METEOR 2-17 DEB Visibility forecast

Observer location: undefined°, undefined°

Span
Click to sort rows by Start time (UTC) header in descending order
Start Az.
Max El. time (UTC)
Max El. Az.
Max El.
End time (UTC)
End Az.
9 mins2025-05-09 15:55:38.146Z14.224° NNE2025-05-09 16:00:38.146Z75.608° E26.343°2025-05-09 16:04:38.146Z128.228° SE
8 mins2025-05-09 17:40:38.146Z323.108° NNW2025-05-09 17:43:38.146Z277.574° WNW29.947°2025-05-09 17:48:38.146Z209.237° SW
9 mins2025-05-10 05:09:38.146Z159.962° S2025-05-10 05:13:38.146Z97.337° ESE37.09°2025-05-10 05:18:38.146Z20.977° NNE
7 mins2025-05-10 06:54:38.146Z252.507° W2025-05-10 06:57:38.146Z291.533° WNW20.312°2025-05-10 07:01:38.146Z337.124° NNW
|